Location: Kennington
(51.1500°N, 0.8833°E)
Time: 09:59:55
(UTC+00:00)

Cosmos 1844 Rocket - Pass Details

Date: 21 September 2020
Orbit: 823 x 846 km, 71.0° (Epoch: 30 October)

Event Time Altitude Azimuth Distance (km) Brightness Sun altitude
Rises 03:51:44 0° 331° (NNW) 3,393 5.8 -17.5°
Reaches altitude 10° 03:54:17 10° 338° (NNW) 2,459 5.1 -17.2°
Maximum altitude 03:59:43 47° 51° (NE) 1,111 3.8 -16.4°
Drops below altitude 10° 04:05:09 10° 125° (SE) 2,459 5.6 -15.6°
Sets 04:07:41 0° 131° (SE) 3,393 6.2 -15.2°
